Walnut Ridge, AR

6:04 PM CST on January 22, 2017 (GMT -0600)
Walnut Ridge Regional

Weather History for KARG - December, 2012

Change the Weather History Date:

Sunday, December 2, 2012

  Actual Average Record
Temperature  
Mean Temperature 63 °F -  
Max Temperature 69 °F 51 °F 69 °F (2012)
Min Temperature 57 °F 35 °F 23 °F (2008)
Degree Days  
Heating Degree Days 2    
Growing Degree Days 13 (Base 50)    
Moisture  
Dew Point 58 °F    
Average Humidity 86    
Maximum Humidity 100    
Minimum Humidity 72    
Precipitation  
Precipitation 0.00 in - - ()
Sea Level Pressure  
Sea Level Pressure 30.11 in    
Wind  
Wind Speed 14 mph (South)    
Max Wind Speed 22 mph    
Max Gust Speed 26 mph    
Visibility 9 miles    
Events      
Averages and records for this station are not official NWS values.
T = Trace of Precipitation, MM = Missing Value Source: NWS Daily Summary

Daily Weather History Graph

Daily Weather History Graph

Search for Another Location

Airport or City:

Trip Planner

Search our weather history database for the weather conditions in past years. The results will help you decide how hot, cold, wet, or windy it might be!

Date:

Astronomy

Dec. 02, 2012 Rise Set
Actual Time 6:57 AM CST 4:49 PM CST
Civil Twilight 6:29 AM CST 5:17 PM CST
Nautical Twilight 5:57 AM CST 5:49 PM CST
Astronomical Twilight 5:26 AM CST 6:20 PM CST
Moon 8:33 PM CST (12/2) 9:49 AM CST (12/2)
Length of Visible Light 10h 48m
Length of Day
9h 51m
Waning Gibbous, 85% of the Moon is Illuminated
Dec 2
Waning Gibbous
Dec 6
Last Quarter
Dec 13
New
Dec 19
First Quarter
Dec 28
Full

Hourly Weather History & Observations

Time (CST) Temp. Dew Point Humidity Pressure Visibility Wind Dir Wind Speed Gust Speed Precip Events Conditions
12:16 AM 57.2 °F 50.0 °F 77% 30.11 in 10.0 mi South 9.2 mph - N/A   Mostly Cloudy
12:35 AM 57.2 °F 50.0 °F 77% 30.10 in 10.0 mi South 10.4 mph - N/A   Scattered Clouds
12:55 AM 59.0 °F 50.0 °F 72% 30.10 in 10.0 mi South 13.8 mph - N/A   Clear
1:15 AM 59.0 °F 51.8 °F 77% 30.09 in 10.0 mi South 16.1 mph 21.9 mph N/A   Clear
1:35 AM 59.0 °F 51.8 °F 77% 30.09 in 10.0 mi South 16.1 mph 20.7 mph N/A   Clear
1:55 AM 59.0 °F 51.8 °F 77% 30.09 in 10.0 mi South 16.1 mph - N/A   Clear
2:15 AM 57.2 °F 51.8 °F 82% 30.09 in 10.0 mi South 17.3 mph - N/A   Clear
2:55 AM 57.2 °F 51.8 °F 82% 30.10 in 10.0 mi South 11.5 mph - N/A   Clear
3:15 AM 57.2 °F 53.6 °F 88% 30.09 in 10.0 mi South 12.7 mph - N/A   Mostly Cloudy
3:35 AM 57.2 °F 53.6 °F 88% 30.10 in 10.0 mi South 12.7 mph - N/A   Overcast
3:55 AM 59.0 °F 53.6 °F 82% 30.09 in 10.0 mi South 16.1 mph - N/A   Overcast
4:15 AM 59.0 °F 53.6 °F 82% 30.09 in 10.0 mi South 13.8 mph 21.9 mph N/A   Overcast
4:35 AM 59.0 °F 53.6 °F 82% 30.09 in 10.0 mi South 17.3 mph - N/A   Overcast
5:15 AM 60.8 °F 53.6 °F 77% 30.08 in 10.0 mi South 19.6 mph - N/A   Overcast
5:35 AM 60.8 °F 55.4 °F 82% 30.08 in 10.0 mi South 18.4 mph - N/A   Mostly Cloudy
5:55 AM 60.8 °F 55.4 °F 82% 30.08 in 10.0 mi South 21.9 mph 26.5 mph N/A   Overcast
6:16 AM 60.8 °F 55.4 °F 82% 30.10 in 10.0 mi South 20.7 mph 25.3 mph N/A   Overcast
6:35 AM 60.8 °F 55.4 °F 82% 30.11 in 10.0 mi SSW 18.4 mph - N/A   Overcast
6:56 AM 60.8 °F 55.4 °F 82% 30.11 in 10.0 mi SSW 18.4 mph - N/A   Overcast
7:15 AM 60.8 °F 57.2 °F 88% 30.11 in 10.0 mi South 20.7 mph 26.5 mph N/A   Overcast
7:35 AM 60.8 °F 57.2 °F 88% 30.12 in 10.0 mi South 20.7 mph 24.2 mph N/A   Overcast
8:15 AM 60.8 °F 57.2 °F 88% 30.13 in 10.0 mi South 19.6 mph - N/A   Overcast
8:35 AM 60.8 °F 57.2 °F 88% 30.14 in 9.0 mi SSW 17.3 mph - N/A   Overcast
8:55 AM 60.8 °F 59.0 °F 94% 30.14 in 9.0 mi SSW 17.3 mph - N/A   Overcast
9:16 AM 62.6 °F 59.0 °F 88% 30.15 in 9.0 mi SSW 17.3 mph 23.0 mph N/A   Overcast
9:35 AM 62.6 °F 59.0 °F 88% 30.15 in 10.0 mi South 17.3 mph - N/A   Overcast
9:55 AM 62.6 °F 60.8 °F 94% 30.16 in 10.0 mi SSW 15.0 mph 21.9 mph N/A   Overcast
10:35 AM 64.4 °F 60.8 °F 88% 30.16 in 10.0 mi SSW 16.1 mph - N/A   Overcast
10:55 AM 64.4 °F 60.8 °F 88% 30.16 in 10.0 mi SSW 12.7 mph - N/A   Overcast
11:15 AM 64.4 °F 60.8 °F 88% 30.15 in 10.0 mi SSW 18.4 mph - N/A   Overcast
11:35 AM 66.2 °F 60.8 °F 83% 30.13 in 10.0 mi SSW 18.4 mph - N/A   Overcast
11:55 AM 66.2 °F 60.8 °F 83% 30.13 in 10.0 mi SSW 16.1 mph 19.6 mph N/A   Overcast
12:55 PM 66.2 °F 60.8 °F 83% 30.11 in 10.0 mi SSW 19.6 mph - N/A   Overcast
1:15 PM 66.2 °F 60.8 °F 83% 30.10 in 10.0 mi SSW 17.3 mph - N/A   Overcast
1:55 PM 68.0 °F 60.8 °F 78% 30.09 in 10.0 mi SSW 20.7 mph 24.2 mph N/A   Overcast
2:35 PM 68.0 °F 62.6 °F 83% 30.08 in 10.0 mi South 12.7 mph - N/A   Overcast
3:15 PM 69.8 °F 62.6 °F 78% 30.08 in 10.0 mi South 15.0 mph - N/A   Overcast
3:35 PM 69.8 °F 62.6 °F 78% 30.08 in 10.0 mi South 13.8 mph - N/A   Overcast
3:56 PM 68.0 °F 62.6 °F 83% 30.08 in 10.0 mi South 12.7 mph - N/A   Overcast
4:15 PM 68.0 °F 62.6 °F 83% 30.08 in 10.0 mi South 12.7 mph - N/A   Mostly Cloudy
4:35 PM 66.2 °F 62.6 °F 88% 30.08 in 9.0 mi South 13.8 mph - N/A   Partly Cloudy
5:15 PM 64.4 °F 60.8 °F 88% 30.08 in 10.0 mi South 15.0 mph 20.7 mph N/A   Clear
5:35 PM 64.4 °F 60.8 °F 88% 30.08 in 10.0 mi South 16.1 mph - N/A   Clear
6:15 PM 64.4 °F 60.8 °F 88% 30.10 in 10.0 mi South 15.0 mph - N/A   Clear
6:35 PM 62.6 °F 60.8 °F 94% 30.10 in 10.0 mi South 12.7 mph - N/A   Clear
7:15 PM 62.6 °F 60.8 °F 94% 30.10 in 9.0 mi South 10.4 mph - N/A   Clear
7:55 PM 60.8 °F 59.0 °F 94% 30.11 in 7.0 mi South 8.1 mph - N/A   Clear
8:16 PM 60.8 °F 57.2 °F 88% 30.11 in 6.0 mi South 10.4 mph - N/A   Clear
8:35 PM 60.8 °F 59.0 °F 94% 30.11 in 8.0 mi South 10.4 mph - N/A   Clear
8:55 PM 60.8 °F 59.0 °F 94% 30.11 in 8.0 mi South 10.4 mph - N/A   Clear
9:35 PM 60.8 °F 59.0 °F 94% 30.12 in 8.0 mi South 11.5 mph - N/A   Clear
9:55 PM 60.8 °F 59.0 °F 94% 30.12 in 7.0 mi South 6.9 mph - N/A   Clear
10:15 PM 57.2 °F 57.2 °F 100% 30.12 in 4.0 mi South 6.9 mph - N/A   Clear
10:36 PM 57.2 °F 57.2 °F 100% 30.11 in 3.0 mi South 6.9 mph - N/A   Clear
10:55 PM 57.2 °F 57.2 °F 100% 30.11 in 3.0 mi South 6.9 mph - N/A   Clear
11:55 PM 57.2 °F 57.2 °F 100% 30.10 in 4.0 mi SSE 6.9 mph - N/A   Mostly Cloudy